Location: Unspecified
(0.0000°N, 0.0000°E)
Time: 09:04:06
(UTC+00:00)

Tiros 1 - Visible Passes

Search period start: 03 April 2020 00:00
Search period end: 13 April 2020 00:00
Orbit: 630 x 664 km, 48.4° (Epoch: 03 April)

Date Brightness Start Highest point End Pass type
(mag) Time Alt. Az. Time Alt. Az. Time Alt. Az.
03 Apr 7.8 19:31:08 10° NW 19:35:42 50° SW 19:37:31 32° S visible
04 Apr 9.6 19:58:52 10° W 20:01:43 16° SW 20:03:32 13° SSW visible
05 Apr 7.7 18:40:59 10° NW 18:45:38 58° SW 18:50:16 10° SSE visible
06 Apr 9.6 05:13:08 10° S 05:16:31 20° SE 05:19:55 10° E visible
06 Apr 9.7 19:08:27 10° W 19:11:39 18° SW 19:14:49 10° S visible
08 Apr 9.6 04:23:21 10° S 04:26:27 17° SE 04:29:32 10° E visible
09 Apr 7.6 04:48:52 16° SSW 04:52:26 57° SE 04:57:01 10° NE visible
10 Apr 9.8 03:37:06 15° ESE 03:37:06 15° ESE 03:39:06 10° E visible
10 Apr 7.7 05:14:50 14° WSW 05:18:24 40° NW 05:22:47 10° NNE visible
11 Apr 8.0 04:03:01 46° E 04:03:01 46° E 04:06:53 10° NE visible
12 Apr 7.6 04:28:49 44° NNW 04:28:49 44° NNW 04:32:48 10° NNE visible
